Weather History for KMDS - December, 2011

Change the Weather History Date:

Monday, December 5, 2011

  Actual Average Record
Temperature  
Mean Temperature 12 °F -  
Max Temperature 15 °F 31 °F 48 °F (2012)
Min Temperature 10 °F 13 °F -7 °F (2013)
Degree Days  
Heating Degree Days 52    
Moisture  
Dew Point 11 °F    
Average Humidity 88    
Maximum Humidity 100    
Minimum Humidity 62    
Precipitation  
Precipitation 0.15 in - - ()
Sea Level Pressure  
Sea Level Pressure 30.44 in    
Wind  
Wind Speed 10 mph (North)    
Max Wind Speed 18 mph    
Max Gust Speed 23 mph    
Visibility 10 miles    
Events Snow    
Averages and records for this station are not official NWS values.
T = Trace of Precipitation, MM = Missing Value Source: NWS Daily Summary

Daily Weather History Graph

Daily Weather History Graph

Search for Another Location

Airport or City:

Trip Planner

Search our weather history database for the weather conditions in past years. The results will help you decide how hot, cold, wet, or windy it might be!

Date:

Astronomy

Dec. 05, 2011 Rise Set
Actual Time 7:47 AM CST 4:50 PM CST
Civil Twilight 7:14 AM CST 5:23 PM CST
Nautical Twilight 6:38 AM CST 5:59 PM CST
Astronomical Twilight 6:03 AM CST 6:34 PM CST
Moon 1:54 PM CST (12/5) 3:03 AM CST (12/5)
Length of Visible Light 10h 08m
Length of Day
9h 03m
Waxing Gibbous, 80% of the Moon is Illuminated
Dec 5
Waxing Gibbous
Dec 10
Full
Dec 17
Last Quarter
Dec 24
New
Jan 1
First Quarter

Hourly Weather History & Observations

Time (CST) Temp. Windchill Dew Point Humidity Pressure Visibility Wind Dir Wind Speed Gust Speed Precip Events Conditions
12:10 AM 15.8 °F 7.2 °F 15.8 °F 100% 30.34 in 10.0 mi NE 5.8 mph - N/A   Overcast
12:30 AM 15.8 °F 4.2 °F 15.8 °F 100% 30.34 in 10.0 mi ENE 9.2 mph - N/A   Overcast
12:50 AM 15.8 °F 5.1 °F 15.8 °F 100% 30.34 in 10.0 mi ENE 8.1 mph - N/A   Overcast
1:10 AM 15.8 °F 5.1 °F 15.8 °F 100% 30.35 in 10.0 mi NNE 8.1 mph - N/A Snow Light Snow
1:30 AM 15.8 °F 7.2 °F 15.8 °F 100% 30.34 in 10.0 mi NE 5.8 mph - N/A Snow Light Snow
1:50 AM 15.8 °F 7.2 °F 15.8 °F 100% 30.35 in 10.0 mi NE 5.8 mph - N/A Snow Light Snow
2:00 AM 15.8 °F 7.2 °F 15.8 °F 100% 30.35 in 10.0 mi NNE 5.8 mph - 0.01 in Snow Light Snow
2:10 AM 15.8 °F 5.1 °F 15.8 °F 100% 30.36 in 10.0 mi NNE 8.1 mph - N/A Snow Light Snow
2:30 AM 15.8 °F 4.2 °F 15.8 °F 100% 30.36 in 10.0 mi NNE 9.2 mph - 0.01 in Snow Light Snow
2:50 AM 15.8 °F 4.2 °F 15.8 °F 100% 30.37 in 10.0 mi North 9.2 mph - 0.02 in Snow Light Snow
3:00 AM 15.8 °F 2.7 °F 15.8 °F 100% 30.38 in 10.0 mi NNE 11.5 mph - 0.02 in Snow Light Snow
3:10 AM 15.8 °F 2.1 °F 15.8 °F 100% 30.38 in 10.0 mi NNE 12.7 mph - N/A Snow Light Snow
3:30 AM 15.8 °F 3.4 °F 15.8 °F 100% 30.38 in 10.0 mi North 10.4 mph - N/A Snow Light Snow
4:10 AM 15.8 °F 2.7 °F 15.8 °F 100% 30.38 in 10.0 mi North 11.5 mph - N/A   Overcast
4:30 AM 15.8 °F 1.4 °F 15.8 °F 100% 30.39 in 10.0 mi North 13.8 mph - N/A   Overcast
5:10 AM 15.8 °F 2.7 °F 15.8 °F 100% 30.41 in 10.0 mi North 11.5 mph - N/A Snow Light Snow
5:30 AM 14.0 °F -0.8 °F 14.0 °F 100% 30.41 in 10.0 mi North 13.8 mph 20.7 mph 0.03 in Snow Light Snow
5:50 AM 14.0 °F -0.2 °F 14.0 °F 100% 30.41 in 10.0 mi North 12.7 mph - 0.03 in   Overcast
6:00 AM 12.2 °F -0.2 °F 12.2 °F 100% 30.42 in 10.0 mi North 9.2 mph - 0.03 in   Mostly Cloudy
6:10 AM 10.4 °F -2.4 °F 10.4 °F 100% 30.42 in 10.0 mi North 9.2 mph - N/A   Scattered Clouds
6:50 AM 12.2 °F 0.7 °F 12.2 °F 100% 30.44 in 10.0 mi NNW 8.1 mph - N/A Snow Light Snow
7:00 AM 12.2 °F 0.7 °F 12.2 °F 100% 30.44 in 10.0 mi North 8.1 mph - 0.01 in Snow Light Snow
7:10 AM 14.0 °F -0.8 °F 14.0 °F 100% 30.44 in 10.0 mi North 13.8 mph - N/A   Mostly Cloudy
7:30 AM 12.2 °F -1.8 °F 12.2 °F 100% 30.45 in 10.0 mi North 11.5 mph - N/A   Overcast
7:50 AM 12.2 °F -0.2 °F 12.2 °F 100% 30.45 in 10.0 mi NNW 9.2 mph - N/A   Mostly Cloudy
8:10 AM 14.0 °F 2.0 °F 14.0 °F 100% 30.46 in 10.0 mi NNW 9.2 mph - N/A Snow Light Snow
8:30 AM 14.0 °F 0.5 °F 14.0 °F 100% 30.47 in 10.0 mi NNW 11.5 mph - N/A   Mostly Cloudy
8:50 AM 14.0 °F -2.0 °F 12.2 °F 93% 30.49 in 10.0 mi North 16.1 mph - 0.01 in Snow Light Snow
9:00 AM 14.0 °F -1.4 °F 12.2 °F 93% 30.49 in 10.0 mi North 15.0 mph - 0.01 in Snow Light Snow
9:10 AM 14.0 °F -1.4 °F 14.0 °F 100% 30.49 in 9.0 mi North 15.0 mph 19.6 mph N/A Snow Light Snow
9:30 AM 14.0 °F -1.4 °F 10.4 °F 86% 30.49 in 10.0 mi North 15.0 mph - 0.01 in   Mostly Cloudy
9:50 AM 14.0 °F -2.0 °F 10.4 °F 86% 30.50 in 10.0 mi North 16.1 mph - 0.01 in Snow Light Snow
10:00 AM 14.0 °F -3.0 °F 8.6 °F 79% 30.50 in 10.0 mi North 18.4 mph 23.0 mph 0.01 in   Mostly Cloudy
10:10 AM 14.0 °F -2.0 °F 6.8 °F 73% 30.50 in 10.0 mi North 16.1 mph 23.0 mph N/A   Mostly Cloudy
10:30 AM 14.0 °F -2.5 °F 5.0 °F 67% 30.51 in 10.0 mi North 17.3 mph 21.9 mph N/A   Mostly Cloudy
10:50 AM 14.0 °F -0.8 °F 6.8 °F 73% 30.51 in 10.0 mi North 13.8 mph - N/A   Mostly Cloudy
11:10 AM 14.0 °F -0.8 °F 5.0 °F 67% 30.52 in 10.0 mi North 13.8 mph - N/A   Overcast
11:30 AM 14.0 °F -0.2 °F 6.8 °F 73% 30.51 in 10.0 mi North 12.7 mph - N/A   Overcast
11:50 AM 14.0 °F 0.5 °F 8.6 °F 79% 30.51 in 8.0 mi North 11.5 mph - N/A Snow Light Snow
12:00 PM 14.0 °F -1.4 °F 6.8 °F 73% 30.51 in 10.0 mi NNW 15.0 mph - 0.01 in Snow Light Snow
12:10 PM 14.0 °F -0.2 °F 6.8 °F 73% 30.50 in 10.0 mi NNW 12.7 mph 20.7 mph N/A Snow Light Snow
12:30 PM 14.0 °F -0.2 °F 6.8 °F 73% 30.49 in 10.0 mi NNW 12.7 mph - N/A   Mostly Cloudy
12:50 PM 15.8 °F 0.9 °F 6.8 °F 68% 30.49 in 10.0 mi NNW 15.0 mph 18.4 mph N/A   Mostly Cloudy
1:10 PM 15.8 °F 0.9 °F 6.8 °F 68% 30.48 in 10.0 mi NNW 15.0 mph - N/A   Mostly Cloudy
1:30 PM 15.8 °F 0.9 °F 6.8 °F 68% 30.48 in 10.0 mi NNW 15.0 mph 18.4 mph N/A   Mostly Cloudy
1:50 PM 15.8 °F 1.4 °F 6.8 °F 68% 30.47 in 10.0 mi NNW 13.8 mph 18.4 mph N/A   Mostly Cloudy
2:10 PM 15.8 °F 1.4 °F 6.8 °F 68% 30.47 in 10.0 mi NW 13.8 mph - N/A   Mostly Cloudy
2:30 PM 15.8 °F 3.4 °F 6.8 °F 68% 30.46 in 10.0 mi NNW 10.4 mph 18.4 mph N/A   Mostly Cloudy
2:50 PM 15.8 °F 2.1 °F 6.8 °F 68% 30.46 in 10.0 mi NNW 12.7 mph 18.4 mph N/A   Scattered Clouds
3:10 PM 15.8 °F 2.1 °F 6.8 °F 68% 30.46 in 10.0 mi NNW 12.7 mph - N/A   Partly Cloudy
3:30 PM 15.8 °F 2.1 °F 5.0 °F 62% 30.45 in 10.0 mi North 12.7 mph - N/A   Clear
3:50 PM 15.8 °F 2.1 °F 5.0 °F 62% 30.46 in 10.0 mi North 12.7 mph - N/A   Clear
4:10 PM 14.0 °F -0.2 °F 5.0 °F 67% 30.46 in 10.0 mi NNW 12.7 mph - N/A   Partly Cloudy
4:30 PM 14.0 °F 1.2 °F 5.0 °F 67% 30.46 in 10.0 mi North 10.4 mph - N/A   Partly Cloudy
4:50 PM 12.2 °F -0.2 °F 5.0 °F 73% 30.46 in 10.0 mi North 9.2 mph - N/A   Clear
5:10 PM 10.4 °F -0.4 °F 5.0 °F 79% 30.47 in 10.0 mi North 6.9 mph - N/A   Clear
5:30 PM 8.6 °F -2.6 °F 5.0 °F 85% 30.46 in 10.0 mi North 6.9 mph - N/A   Clear
5:50 PM 8.6 °F -3.7 °F 5.0 °F 85% 30.46 in 10.0 mi North 8.1 mph - N/A   Clear
6:10 PM 6.8 °F -5.9 °F 5.0 °F 92% 30.46 in 10.0 mi North 8.1 mph - N/A   Clear
6:30 PM 6.8 °F -4.8 °F 5.0 °F 92% 30.46 in 10.0 mi North 6.9 mph - N/A   Clear
6:50 PM 6.8 °F -2.0 °F 3.2 °F 85% 30.46 in 10.0 mi NW 4.6 mph - N/A   Clear
7:10 PM 6.8 °F -3.5 °F 5.0 °F 92% 30.46 in 10.0 mi NW 5.8 mph - N/A   Clear
7:30 PM 6.8 °F -3.5 °F 5.0 °F 92% 30.46 in 10.0 mi WNW 5.8 mph - N/A   Clear
7:50 PM 6.8 °F -5.9 °F 5.0 °F 92% 30.46 in 10.0 mi WNW 8.1 mph - N/A   Clear
8:10 PM 5.0 °F -8.1 °F 3.2 °F 92% 30.46 in 10.0 mi WNW 8.1 mph - N/A   Clear
8:30 PM 3.2 °F -10.3 °F 3.2 °F 100% 30.46 in 10.0 mi NW 8.1 mph - N/A   Clear
8:50 PM 3.2 °F -9.1 °F 3.2 °F 100% 30.46 in 10.0 mi WNW 6.9 mph - N/A   Clear
9:10 PM 3.2 °F -9.1 °F 3.2 °F 100% 30.46 in 10.0 mi WNW 6.9 mph - N/A   Clear
9:30 PM 1.4 °F -9.9 °F 1.4 °F 100% 30.45 in 10.0 mi WNW 5.8 mph - N/A   Clear
9:50 PM 1.4 °F -11.3 °F 1.4 °F 100% 30.45 in 10.0 mi WNW 6.9 mph - N/A   Clear
10:10 PM 1.4 °F -11.3 °F 1.4 °F 100% 30.45 in 10.0 mi WNW 6.9 mph - N/A   Clear
10:30 PM 1.4 °F -11.3 °F 1.4 °F 100% 30.44 in 10.0 mi NW 6.9 mph - N/A   Clear
10:50 PM 1.4 °F -11.3 °F 1.4 °F 100% 30.43 in 10.0 mi NW 6.9 mph - N/A   Clear
11:10 PM 1.4 °F -8.3 °F 1.4 °F 100% 30.43 in 10.0 mi NW 4.6 mph - N/A   Clear
11:30 PM 1.4 °F -6.2 °F 1.4 °F 100% 30.43 in 10.0 mi NW 3.5 mph - N/A   Clear
11:50 PM 1.4 °F - 1.4 °F 100% 30.43 in 10.0 mi Calm Calm - N/A   Clear